Weather in Medveditsa

Russia / Volgograd Oblast     51°04′52″N   44°49′11″E
temp.,
°C
wind,
m/s
gust,
m/s
humid.,
%
clouds,
%
prec.,
mm/h
press.,
hPa
HPBL,
m
27 july, tue
tue2700:00+17ene22550 0.0 102213
03:00+15ne11590 0.0 102211
06:00+18e01532 0.0 102236
09:00+24sw21363 0.0 1022826
12:00+27nw34315 0.0 10211974
15:00+28nw553251 0.0 10182769
18:00+25nnw3537100 0.0 1018121
21:00+21nw225397 0.0 101814
28 july, wed
wed2800:00+19nnw226255 0.0 101822
03:00+17nnw22693 0.0 101819
06:00+19n23724 0.0 1018107
09:00+25nne22465 0.0 1018728
12:00+29nne23320 0.0 10172494
15:00+30n232725 0.0 10152873
18:00+29nne12306 0.0 10152086
21:00+24se224255 0.0 101553
29 july, thu
thu2900:00+21s354756 0.0 101571
03:00+19s3554100 0.0 101488
06:00+21s3954100 0.0 1013199
09:00+26sw61142100 0.0 1012737
12:00+32wsw8102593 0.0 10103040
15:00+31wsw810339 0.0 10092004
18:00+26wnw6125661 0.1 1009607
21:00+22wsw3874100 0.3 1009133
30 july, fri
fri3000:00+21w387597 0.0 1010131
03:00+21w227441 0.0 101029
06:00+21w126916 0.0 101089
09:00+28wsw234644 0.0 1011784
12:00+31wsw3535100 0.1 10102690
15:00+32wsw363492 0.3 10082485
18:00+20n4690100 3.6 1010211
21:00+20se259185 10.6 1010130
31 july, sat
sat3100:00+19ssw2493100 0.8 101097
03:00+19wsw229099 0.8 101045
06:00+20se1185100 0.6 101078
09:00+25s346510 0.6 1010656
12:00+30wsw35480 0.0 10091513
15:00+32wsw463882 0.0 10082645
18:00+28nnw475250 0.0 1009358
21:00+24s116420 0.1 101011